Year,Month,Day,Hour,Minute,Value (Times are PST for temperature in C)
2007,02,16,00,00,6.10
2007,02,16,00,01,6.20
2007,02,16,00,02,6.20
2007,02,16,00,03,6.20
2007,02,16,00,04,6.20
2007,02,16,00,05,6.10
2007,02,16,00,06,6.10
2007,02,16,00,07,6.10
2007,02,16,00,08,6.10
2007,02,16,00,09,6.10
2007,02,16,00,10,6.10
2007,02,16,00,11,6.10
2007,02,16,00,12,6.10
2007,02,16,00,13,6.10
2007,02,16,00,14,6.10
2007,02,16,00,15,6.10
2007,02,16,00,16,6.10
2007,02,16,00,17,6.10
2007,02,16,00,18,6.10
2007,02,16,00,19,6.10
2007,02,16,00,20,6.10
2007,02,16,00,21,6.10
2007,02,16,00,22,6.10
2007,02,16,00,23,6.10
2007,02,16,00,24,6.10
2007,02,16,00,25,6.10
2007,02,16,00,26,6.10
2007,02,16,00,27,6.20
2007,02,16,00,28,6.20
2007,02,16,00,29,6.20
2007,02,16,00,30,6.10
2007,02,16,00,31,6.10
2007,02,16,00,32,6.10
2007,02,16,00,33,6.10
2007,02,16,00,34,6.20
2007,02,16,00,35,6.20
2007,02,16,00,36,6.20
2007,02,16,00,37,6.20
2007,02,16,00,38,6.20
2007,02,16,00,39,6.20
2007,02,16,00,40,6.20
2007,02,16,00,41,6.20
2007,02,16,00,42,6.10
2007,02,16,00,43,6.10
2007,02,16,00,44,6.10
2007,02,16,00,45,6.20
2007,02,16,00,46,6.20
2007,02,16,00,47,6.20
2007,02,16,00,48,6.20
2007,02,16,00,49,6.20
2007,02,16,00,50,6.20
2007,02,16,00,51,6.10
2007,02,16,00,52,6.10
2007,02,16,00,53,6.10
2007,02,16,00,54,6.10
2007,02,16,00,55,6.10
2007,02,16,00,56,6.10
2007,02,16,00,57,6.10
2007,02,16,00,58,6.10
2007,02,16,00,59,6.10
2007,02,16,01,00,6.10
2007,02,16,01,01,6.10
2007,02,16,01,02,6.10
2007,02,16,01,03,6.10
2007,02,16,01,04,6.10
2007,02,16,01,05,6.10
2007,02,16,01,06,6.10
2007,02,16,01,07,6.10
2007,02,16,01,08,6.10
2007,02,16,01,09,6.10
2007,02,16,01,10,6.10
2007,02,16,01,11,6.10
2007,02,16,01,12,6.10
2007,02,16,01,13,6.10
2007,02,16,01,14,6.10
2007,02,16,01,15,6.10
2007,02,16,01,16,6.10
2007,02,16,01,17,6.10
2007,02,16,01,18,6.10
2007,02,16,01,19,6.10
2007,02,16,01,20,6.10
2007,02,16,01,21,6.10
2007,02,16,01,22,6.10
2007,02,16,01,23,6.10
2007,02,16,01,24,6.10
2007,02,16,01,25,6.10
2007,02,16,01,26,6.10
2007,02,16,01,27,6.10
2007,02,16,01,28,6.10
2007,02,16,01,29,6.10
2007,02,16,01,30,6.10
2007,02,16,01,31,6.10
2007,02,16,01,32,6.10
2007,02,16,01,33,6.10
2007,02,16,01,34,6.10
2007,02,16,01,35,6.10
2007,02,16,01,36,6.10
2007,02,16,01,37,6.10
2007,02,16,01,38,6.10
2007,02,16,01,39,6.10
2007,02,16,01,40,6.10
2007,02,16,01,41,6.00
2007,02,16,01,42,6.00
2007,02,16,01,43,6.00
2007,02,16,01,44,6.00
2007,02,16,01,45,6.00
2007,02,16,01,46,6.00
2007,02,16,01,47,6.00
2007,02,16,01,48,6.00
2007,02,16,01,49,6.00
2007,02,16,01,50,6.00
2007,02,16,01,51,6.00
2007,02,16,01,52,6.00
2007,02,16,01,53,6.00
2007,02,16,01,54,6.00
2007,02,16,01,55,6.00
2007,02,16,01,56,6.00
2007,02,16,01,57,5.90
2007,02,16,01,58,5.90
2007,02,16,01,59,5.90
2007,02,16,02,00,5.80
2007,02,16,02,01,5.80
2007,02,16,02,02,5.70
2007,02,16,02,03,5.60
2007,02,16,02,04,5.50
2007,02,16,02,05,5.50
2007,02,16,02,06,5.40
2007,02,16,02,07,5.30
2007,02,16,02,08,5.20
2007,02,16,02,09,5.20
2007,02,16,02,10,5.20
2007,02,16,02,11,5.10
2007,02,16,02,12,5.10
2007,02,16,02,13,5.10
2007,02,16,02,14,5.00
2007,02,16,02,15,5.00
2007,02,16,02,16,4.90
2007,02,16,02,17,4.90
2007,02,16,02,18,4.80
2007,02,16,02,19,4.80
2007,02,16,02,20,4.80
2007,02,16,02,21,4.90
2007,02,16,02,22,4.90
2007,02,16,02,23,4.90
2007,02,16,02,24,4.80
2007,02,16,02,25,4.80
2007,02,16,02,26,4.80
2007,02,16,02,27,4.80
2007,02,16,02,28,4.80
2007,02,16,02,29,4.70
2007,02,16,02,30,4.60
2007,02,16,02,31,4.60
2007,02,16,02,32,4.60
2007,02,16,02,33,4.60
2007,02,16,02,34,4.60
2007,02,16,02,35,4.60
2007,02,16,02,36,4.60
2007,02,16,02,37,4.60
2007,02,16,02,38,4.70
2007,02,16,02,39,4.70
2007,02,16,02,40,4.80
2007,02,16,02,41,4.80
2007,02,16,02,42,4.90
2007,02,16,02,43,5.00
2007,02,16,02,44,5.10
2007,02,16,02,45,5.20
2007,02,16,02,46,5.20
2007,02,16,02,47,5.10
2007,02,16,02,48,5.10
2007,02,16,02,49,5.10
2007,02,16,02,50,5.00
2007,02,16,02,51,5.00
2007,02,16,02,52,4.90
2007,02,16,02,53,4.80
2007,02,16,02,54,4.80
2007,02,16,02,55,4.80
2007,02,16,02,56,4.80
2007,02,16,02,57,4.70
2007,02,16,02,58,4.70
2007,02,16,02,59,4.70
2007,02,16,03,00,4.70
2007,02,16,03,01,4.70
2007,02,16,03,02,4.80
2007,02,16,03,03,4.80
2007,02,16,03,04,4.90
2007,02,16,03,05,4.90
2007,02,16,03,06,4.90
2007,02,16,03,07,4.90
2007,02,16,03,08,4.90
2007,02,16,03,09,4.80
2007,02,16,03,10,4.80
2007,02,16,03,11,4.70
2007,02,16,03,12,4.60
2007,02,16,03,13,4.50
2007,02,16,03,14,4.50
2007,02,16,03,15,4.40
2007,02,16,03,16,4.30
2007,02,16,03,17,4.20
2007,02,16,03,18,4.20
2007,02,16,03,19,4.20
2007,02,16,03,20,4.10
2007,02,16,03,21,4.10
2007,02,16,03,22,4.10
2007,02,16,03,23,4.00
2007,02,16,03,24,4.00
2007,02,16,03,25,3.90
2007,02,16,03,26,3.90
2007,02,16,03,27,3.80
2007,02,16,03,28,3.80
2007,02,16,03,29,3.80
2007,02,16,03,30,3.70
2007,02,16,03,31,3.70
2007,02,16,03,32,3.70
2007,02,16,03,33,3.60
2007,02,16,03,34,3.60
2007,02,16,03,35,3.50
2007,02,16,03,36,3.50
2007,02,16,03,37,3.50
2007,02,16,03,38,3.60
2007,02,16,03,39,3.60
2007,02,16,03,40,3.70
2007,02,16,03,41,3.70
2007,02,16,03,42,3.70
2007,02,16,03,43,3.80
2007,02,16,03,44,3.80
2007,02,16,03,45,3.80
2007,02,16,03,46,3.90
2007,02,16,03,47,4.00
2007,02,16,03,48,4.00
2007,02,16,03,49,4.10
2007,02,16,03,50,4.20
2007,02,16,03,51,4.20
2007,02,16,03,52,4.20
2007,02,16,03,53,4.30
2007,02,16,03,54,4.30
2007,02,16,03,55,4.30
2007,02,16,03,56,4.30
2007,02,16,03,57,4.30
2007,02,16,03,58,4.30
2007,02,16,03,59,4.40
2007,02,16,04,00,4.40
2007,02,16,04,01,4.40
2007,02,16,04,02,4.40
2007,02,16,04,03,4.40
2007,02,16,04,04,4.30
2007,02,16,04,05,4.30
2007,02,16,04,06,4.20
2007,02,16,04,07,4.10
2007,02,16,04,08,4.10
2007,02,16,04,09,4.10
2007,02,16,04,10,4.10
2007,02,16,04,11,4.10
2007,02,16,04,12,4.20
2007,02,16,04,13,4.20
2007,02,16,04,14,4.30
2007,02,16,04,15,4.30
2007,02,16,04,16,4.30
2007,02,16,04,17,4.30
2007,02,16,04,18,4.20
2007,02,16,04,19,4.20
2007,02,16,04,20,4.10
2007,02,16,04,21,4.10
2007,02,16,04,22,4.00
2007,02,16,04,23,4.00
2007,02,16,04,24,4.00
2007,02,16,04,25,3.90
2007,02,16,04,26,3.90
2007,02,16,04,27,3.90
2007,02,16,04,28,3.90
2007,02,16,04,29,3.80
2007,02,16,04,30,3.80
2007,02,16,04,31,3.90
2007,02,16,04,32,4.00
2007,02,16,04,33,4.20
2007,02,16,04,34,4.30
2007,02,16,04,35,4.50
2007,02,16,04,36,4.60
2007,02,16,04,37,4.80
2007,02,16,04,38,4.90
2007,02,16,04,39,4.90
2007,02,16,04,40,4.90
2007,02,16,04,41,5.00
2007,02,16,04,42,5.10
2007,02,16,04,43,5.10
2007,02,16,04,44,5.20
2007,02,16,04,45,5.20
2007,02,16,04,46,5.30
2007,02,16,04,47,5.30
2007,02,16,04,48,5.20
2007,02,16,04,49,5.20
2007,02,16,04,50,5.20
2007,02,16,04,51,5.20
2007,02,16,04,52,5.10
2007,02,16,04,53,5.10
2007,02,16,04,54,5.00
2007,02,16,04,55,4.90
2007,02,16,04,56,4.80
2007,02,16,04,57,4.80
2007,02,16,04,58,4.80
2007,02,16,04,59,4.70
2007,02,16,05,00,4.70
2007,02,16,05,01,4.60
2007,02,16,05,02,4.50
2007,02,16,05,03,4.40
2007,02,16,05,04,4.40
2007,02,16,05,05,4.30
2007,02,16,05,06,4.30
2007,02,16,05,07,4.30
2007,02,16,05,08,4.20
2007,02,16,05,09,4.20
2007,02,16,05,10,4.20
2007,02,16,05,11,4.20
2007,02,16,05,12,4.10
2007,02,16,05,13,4.10
2007,02,16,05,14,4.10
2007,02,16,05,15,4.10
2007,02,16,05,16,4.00
2007,02,16,05,17,4.00
2007,02,16,05,18,3.90
2007,02,16,05,19,3.80
2007,02,16,05,20,3.80
2007,02,16,05,21,3.70
2007,02,16,05,22,3.70
2007,02,16,05,23,3.70
2007,02,16,05,24,3.60
2007,02,16,05,25,3.60
2007,02,16,05,26,3.60
2007,02,16,05,27,3.60
2007,02,16,05,28,3.60
2007,02,16,05,29,3.50
2007,02,16,05,30,3.50
2007,02,16,05,31,3.50
2007,02,16,05,32,3.50
2007,02,16,05,33,3.50
2007,02,16,05,34,3.40
2007,02,16,05,35,3.40
2007,02,16,05,36,3.40
2007,02,16,05,37,3.40
2007,02,16,05,38,3.40
2007,02,16,05,39,3.40
2007,02,16,05,40,3.30
2007,02,16,05,41,3.30
2007,02,16,05,42,3.20
2007,02,16,05,43,3.20
2007,02,16,05,44,3.20
2007,02,16,05,45,3.20
2007,02,16,05,46,3.30
2007,02,16,05,47,3.30
2007,02,16,05,48,3.30
2007,02,16,05,49,3.30
2007,02,16,05,50,3.30
2007,02,16,05,51,3.40
2007,02,16,05,52,3.50
2007,02,16,05,53,3.50
2007,02,16,05,54,3.60
2007,02,16,05,55,3.70
2007,02,16,05,56,3.80
2007,02,16,05,57,3.90
2007,02,16,05,58,3.90
2007,02,16,05,59,3.90
2007,02,16,06,00,3.90
2007,02,16,06,01,3.80
2007,02,16,06,02,3.80
2007,02,16,06,03,3.70
2007,02,16,06,04,3.60
2007,02,16,06,05,3.60
2007,02,16,06,06,3.50
2007,02,16,06,07,3.50
2007,02,16,06,08,3.40
2007,02,16,06,09,3.30
2007,02,16,06,10,3.30
2007,02,16,06,11,3.30
2007,02,16,06,12,3.20
2007,02,16,06,13,3.20
2007,02,16,06,14,3.20
2007,02,16,06,15,3.10
2007,02,16,06,16,3.10
2007,02,16,06,17,3.10
2007,02,16,06,18,3.10
2007,02,16,06,19,3.00
2007,02,16,06,20,3.00
2007,02,16,06,21,3.00
2007,02,16,06,22,3.00
2007,02,16,06,23,2.90
2007,02,16,06,24,2.90
2007,02,16,06,25,2.90
2007,02,16,06,26,2.90
2007,02,16,06,27,2.90
2007,02,16,06,28,2.90
2007,02,16,06,29,2.90
2007,02,16,06,30,2.80
2007,02,16,06,31,2.80
2007,02,16,06,32,2.80
2007,02,16,06,33,2.80
2007,02,16,06,34,2.80
2007,02,16,06,35,2.80
2007,02,16,06,36,2.80
2007,02,16,06,37,2.80
2007,02,16,06,38,2.80
2007,02,16,06,39,2.80
2007,02,16,06,40,2.80
2007,02,16,06,41,2.80
2007,02,16,06,42,2.70
2007,02,16,06,43,2.70
2007,02,16,06,44,2.70
2007,02,16,06,45,2.70
2007,02,16,06,46,2.70
2007,02,16,06,47,2.70
2007,02,16,06,48,2.70
2007,02,16,06,49,2.70
2007,02,16,06,50,2.70
2007,02,16,06,51,2.70
2007,02,16,06,52,2.70
2007,02,16,06,53,2.60
2007,02,16,06,54,2.60
2007,02,16,06,55,2.50
2007,02,16,06,56,2.50
2007,02,16,06,57,2.40
2007,02,16,06,58,2.40
2007,02,16,06,59,2.40
2007,02,16,07,00,2.40
2007,02,16,07,01,2.40
2007,02,16,07,02,2.40
2007,02,16,07,03,2.40
2007,02,16,07,04,2.30
2007,02,16,07,05,2.30
2007,02,16,07,06,2.30
2007,02,16,07,07,2.30
2007,02,16,07,08,2.30
2007,02,16,07,09,2.30
2007,02,16,07,10,2.30
2007,02,16,07,11,2.20
2007,02,16,07,12,2.20
2007,02,16,07,13,2.20
2007,02,16,07,14,2.20
2007,02,16,07,15,2.20
2007,02,16,07,16,2.20
2007,02,16,07,17,2.20
2007,02,16,07,18,2.10
2007,02,16,07,19,2.10
2007,02,16,07,20,2.10
2007,02,16,07,21,2.10
2007,02,16,07,22,2.10
2007,02,16,07,23,2.10
2007,02,16,07,24,2.10
2007,02,16,07,25,2.10
2007,02,16,07,26,2.10
2007,02,16,07,27,2.10
2007,02,16,07,28,2.10
2007,02,16,07,29,2.10
2007,02,16,07,30,2.10
2007,02,16,07,31,2.10
2007,02,16,07,32,2.10
2007,02,16,07,33,2.10
2007,02,16,07,34,2.10
2007,02,16,07,35,2.10
2007,02,16,07,36,2.10
2007,02,16,07,37,2.10
2007,02,16,07,38,2.10
2007,02,16,07,39,2.20
2007,02,16,07,40,2.20
2007,02,16,07,41,2.20
2007,02,16,07,42,2.30
2007,02,16,07,43,2.30
2007,02,16,07,44,2.30
2007,02,16,07,45,2.40
2007,02,16,07,46,2.40
2007,02,16,07,47,2.40
2007,02,16,07,48,2.40
2007,02,16,07,49,2.40
2007,02,16,07,50,2.40
2007,02,16,07,51,2.40
2007,02,16,07,52,2.40
2007,02,16,07,53,2.40
2007,02,16,07,54,2.40
2007,02,16,07,55,2.40
2007,02,16,07,56,2.40
2007,02,16,07,57,2.40
2007,02,16,07,58,2.40
2007,02,16,07,59,2.40
2007,02,16,08,00,2.40
2007,02,16,08,01,2.40
2007,02,16,08,02,2.40
2007,02,16,08,03,2.40
2007,02,16,08,04,2.40
2007,02,16,08,05,2.40
2007,02,16,08,06,2.40
2007,02,16,08,07,2.40
2007,02,16,08,08,2.40
2007,02,16,08,09,2.40
2007,02,16,08,10,2.50
2007,02,16,08,11,2.50
2007,02,16,08,12,2.50
2007,02,16,08,13,2.50
2007,02,16,08,14,2.50
2007,02,16,08,15,2.50
2007,02,16,08,16,2.50
2007,02,16,08,17,2.60
2007,02,16,08,18,2.60
2007,02,16,08,19,2.60
2007,02,16,08,20,2.60
2007,02,16,08,21,2.70
2007,02,16,08,22,2.70
2007,02,16,08,23,2.70
2007,02,16,08,24,2.80
2007,02,16,08,25,2.80
2007,02,16,08,26,2.90
2007,02,16,08,27,3.00
2007,02,16,08,28,3.00
2007,02,16,08,29,3.10
2007,02,16,08,30,3.10
2007,02,16,08,31,3.10
2007,02,16,08,32,3.10
2007,02,16,08,33,3.10
2007,02,16,08,34,3.10
2007,02,16,08,35,3.20
2007,02,16,08,36,3.20
2007,02,16,08,37,3.20
2007,02,16,08,38,3.20
2007,02,16,08,39,3.20
2007,02,16,08,40,3.30
2007,02,16,08,41,3.30
2007,02,16,08,42,3.30
2007,02,16,08,43,3.30
2007,02,16,08,44,3.40
2007,02,16,08,45,3.40
2007,02,16,08,46,3.40
2007,02,16,08,47,3.50
2007,02,16,08,48,3.50
2007,02,16,08,49,3.60
2007,02,16,08,50,3.60
2007,02,16,08,51,3.70
2007,02,16,08,52,3.70
2007,02,16,08,53,3.70
2007,02,16,08,54,3.80
2007,02,16,08,55,3.80
2007,02,16,08,56,3.90
2007,02,16,08,57,3.90
2007,02,16,08,58,4.00
2007,02,16,08,59,4.10
2007,02,16,09,00,4.20
2007,02,16,09,01,4.20
2007,02,16,09,02,4.30
2007,02,16,09,03,4.40
2007,02,16,09,04,4.40
2007,02,16,09,05,4.50
2007,02,16,09,06,4.60
2007,02,16,09,07,4.60
2007,02,16,09,08,4.60
2007,02,16,09,09,4.70
2007,02,16,09,10,4.70
2007,02,16,09,11,4.80
2007,02,16,09,12,4.90
2007,02,16,09,13,5.00
2007,02,16,09,14,5.10
2007,02,16,09,15,5.20
2007,02,16,09,16,5.30
2007,02,16,09,17,5.40
2007,02,16,09,18,5.50
2007,02,16,09,19,5.60
2007,02,16,09,20,5.60
2007,02,16,09,21,5.70
2007,02,16,09,22,5.70
2007,02,16,09,23,5.80
2007,02,16,09,24,5.80
2007,02,16,09,25,5.90
2007,02,16,09,26,5.90
2007,02,16,09,27,6.00
2007,02,16,09,28,6.10
2007,02,16,09,29,6.10
2007,02,16,09,30,6.20
2007,02,16,09,31,6.30
2007,02,16,09,32,6.30
2007,02,16,09,33,6.40
2007,02,16,09,34,6.50
2007,02,16,09,35,6.50
2007,02,16,09,36,6.60
2007,02,16,09,37,6.60
2007,02,16,09,38,6.70
2007,02,16,09,39,6.70
2007,02,16,09,40,6.80
2007,02,16,09,41,6.80
2007,02,16,09,42,6.80
2007,02,16,09,43,6.80
2007,02,16,09,44,6.90
2007,02,16,09,45,6.90
2007,02,16,09,46,6.90
2007,02,16,09,47,6.90
2007,02,16,09,48,6.90
2007,02,16,09,49,6.90
2007,02,16,09,50,6.90
2007,02,16,09,51,6.90
2007,02,16,09,52,6.90
2007,02,16,09,53,6.90
2007,02,16,09,54,6.90
2007,02,16,09,55,6.90
2007,02,16,09,56,6.90
2007,02,16,09,57,6.90
2007,02,16,09,58,6.90
2007,02,16,09,59,6.90
2007,02,16,10,00,6.90
2007,02,16,10,01,6.90
2007,02,16,10,02,6.90
2007,02,16,10,03,6.90
2007,02,16,10,04,6.90
2007,02,16,10,05,7.00
2007,02,16,10,06,7.00
2007,02,16,10,07,7.10
2007,02,16,10,08,7.10
2007,02,16,10,09,7.20
2007,02,16,10,10,7.20
2007,02,16,10,11,7.30
2007,02,16,10,12,7.40
2007,02,16,10,13,7.50
2007,02,16,10,14,7.50
2007,02,16,10,15,7.60
2007,02,16,10,16,7.70
2007,02,16,10,17,7.80
2007,02,16,10,18,7.80
2007,02,16,10,19,7.90
2007,02,16,10,20,7.90
2007,02,16,10,21,8.00
2007,02,16,10,22,8.10
2007,02,16,10,23,8.10
2007,02,16,10,24,8.20
2007,02,16,10,25,8.20
2007,02,16,10,26,8.30
2007,02,16,10,27,8.40
2007,02,16,10,28,8.40
2007,02,16,10,29,8.50
2007,02,16,10,30,8.50
2007,02,16,10,31,8.60
2007,02,16,10,32,8.70
2007,02,16,10,33,8.80
2007,02,16,10,34,8.80
2007,02,16,10,35,8.80
2007,02,16,10,36,8.80
2007,02,16,10,37,8.80
2007,02,16,10,38,8.80
2007,02,16,10,39,8.70
2007,02,16,10,40,8.70
2007,02,16,10,41,8.70
2007,02,16,10,42,8.60
2007,02,16,10,43,8.60
2007,02,16,10,44,8.60
2007,02,16,10,45,8.60
2007,02,16,10,46,8.60
2007,02,16,10,47,8.70
2007,02,16,10,48,8.70
2007,02,16,10,49,8.70
2007,02,16,10,50,8.70
2007,02,16,10,51,8.70
2007,02,16,10,52,8.70
2007,02,16,10,53,8.70
2007,02,16,10,54,8.80
2007,02,16,10,55,8.80
2007,02,16,10,56,8.90
2007,02,16,10,57,9.00
2007,02,16,10,58,9.10
2007,02,16,10,59,9.10
2007,02,16,11,00,9.20
2007,02,16,11,01,9.20
2007,02,16,11,02,9.20
2007,02,16,11,03,9.30
2007,02,16,11,04,9.30
2007,02,16,11,05,9.40
2007,02,16,11,06,9.50
2007,02,16,11,07,9.60
2007,02,16,11,08,9.70
2007,02,16,11,09,9.80
2007,02,16,11,10,9.90
2007,02,16,11,11,10.00
2007,02,16,11,12,10.10
2007,02,16,11,13,10.20
2007,02,16,11,14,10.20
2007,02,16,11,15,10.20
2007,02,16,11,16,10.20
2007,02,16,11,17,10.10
2007,02,16,11,18,10.00
2007,02,16,11,19,10.00
2007,02,16,11,20,10.00
2007,02,16,11,21,10.00
2007,02,16,11,22,10.10
2007,02,16,11,23,10.00
2007,02,16,11,24,10.00
2007,02,16,11,25,9.90
2007,02,16,11,26,9.90
2007,02,16,11,27,9.90
2007,02,16,11,28,9.90
2007,02,16,11,29,9.80
2007,02,16,11,30,9.80
2007,02,16,11,31,9.80
2007,02,16,11,32,9.80
2007,02,16,11,33,9.80
2007,02,16,11,34,9.80
2007,02,16,11,35,9.80
2007,02,16,11,36,9.80
2007,02,16,11,37,9.80
2007,02,16,11,38,9.80
2007,02,16,11,39,9.80
2007,02,16,11,40,9.80
2007,02,16,11,41,9.80
2007,02,16,11,42,9.80
2007,02,16,11,43,9.80
2007,02,16,11,44,9.80
2007,02,16,11,45,9.80
2007,02,16,11,46,9.90
2007,02,16,11,47,9.90
2007,02,16,11,48,9.80
2007,02,16,11,49,9.80
2007,02,16,11,50,9.80
2007,02,16,11,51,9.70
2007,02,16,11,52,9.70
2007,02,16,11,53,9.70
2007,02,16,11,54,9.70
2007,02,16,11,55,9.70
2007,02,16,11,56,9.70
2007,02,16,11,57,9.70
2007,02,16,11,58,9.80
2007,02,16,11,59,9.80
2007,02,16,12,00,9.80
2007,02,16,12,01,9.70
2007,02,16,12,02,9.70
2007,02,16,12,03,9.70
2007,02,16,12,04,9.70
2007,02,16,12,05,9.70
2007,02,16,12,06,9.60
2007,02,16,12,07,9.60
2007,02,16,12,08,9.60
2007,02,16,12,09,9.60
2007,02,16,12,10,9.60
2007,02,16,12,11,9.60
2007,02,16,12,12,9.60
2007,02,16,12,13,9.60
2007,02,16,12,14,9.60
2007,02,16,12,15,9.60
2007,02,16,12,16,9.60
2007,02,16,12,17,9.60
2007,02,16,12,18,9.60
2007,02,16,12,19,9.70
2007,02,16,12,20,9.70
2007,02,16,12,21,9.70
2007,02,16,12,22,9.70
2007,02,16,12,23,9.70
2007,02,16,12,24,9.70
2007,02,16,12,25,9.80
2007,02,16,12,26,9.70
2007,02,16,12,27,9.70
2007,02,16,12,28,9.80
2007,02,16,12,29,9.80
2007,02,16,12,30,9.80
2007,02,16,12,31,9.80
2007,02,16,12,32,9.90
2007,02,16,12,33,9.90
2007,02,16,12,34,9.90
2007,02,16,12,35,9.90
2007,02,16,12,36,9.90
2007,02,16,12,37,9.90
2007,02,16,12,38,9.90
2007,02,16,12,39,9.80
2007,02,16,12,40,9.80
2007,02,16,12,41,9.80
2007,02,16,12,42,9.80
2007,02,16,12,43,9.80
2007,02,16,12,44,9.70
2007,02,16,12,45,9.70
2007,02,16,12,46,9.70
2007,02,16,12,47,9.80
2007,02,16,12,48,9.80
2007,02,16,12,49,9.80
2007,02,16,12,50,9.80
2007,02,16,12,51,9.90
2007,02,16,12,52,9.90
2007,02,16,12,53,9.90
2007,02,16,12,54,9.90
2007,02,16,12,55,9.90
2007,02,16,12,56,9.90
2007,02,16,12,57,9.90
2007,02,16,12,58,9.90
2007,02,16,12,59,9.90
2007,02,16,13,00,9.90
2007,02,16,13,01,9.90
2007,02,16,13,02,9.90
2007,02,16,13,03,9.90
2007,02,16,13,04,9.90
2007,02,16,13,05,9.90
2007,02,16,13,06,9.80
2007,02,16,13,07,9.80
2007,02,16,13,08,9.80
2007,02,16,13,09,9.80
2007,02,16,13,10,9.80
2007,02,16,13,11,9.80
2007,02,16,13,12,9.70
2007,02,16,13,13,9.70
2007,02,16,13,14,9.70
2007,02,16,13,15,9.70
2007,02,16,13,16,9.70
2007,02,16,13,17,9.70
2007,02,16,13,18,9.70
2007,02,16,13,19,9.80
2007,02,16,13,20,9.80
2007,02,16,13,21,9.80
2007,02,16,13,22,9.80
2007,02,16,13,23,9.80
2007,02,16,13,24,9.80
2007,02,16,13,25,9.80
2007,02,16,13,26,9.80
2007,02,16,13,27,9.80
2007,02,16,13,28,9.80
2007,02,16,13,29,9.80
2007,02,16,13,30,9.80
2007,02,16,13,31,9.80
2007,02,16,13,32,9.80
2007,02,16,13,33,9.80
2007,02,16,13,34,9.70
2007,02,16,13,35,9.70
2007,02,16,13,36,9.70
2007,02,16,13,37,9.70
2007,02,16,13,38,9.70
2007,02,16,13,39,9.70
2007,02,16,13,40,9.70
2007,02,16,13,41,9.70
2007,02,16,13,42,9.70
2007,02,16,13,43,9.70
2007,02,16,13,44,9.70
2007,02,16,13,45,9.70
2007,02,16,13,46,9.60
2007,02,16,13,47,9.60
2007,02,16,13,48,9.60
2007,02,16,13,49,9.60
2007,02,16,13,50,9.50
2007,02,16,13,51,9.50
2007,02,16,13,52,9.40
2007,02,16,13,53,9.40
2007,02,16,13,54,9.40
2007,02,16,13,55,9.40
2007,02,16,13,56,9.40
2007,02,16,13,57,9.40
2007,02,16,13,58,9.40
2007,02,16,13,59,9.40
2007,02,16,14,00,9.40
2007,02,16,14,01,9.30
2007,02,16,14,02,9.30
2007,02,16,14,03,9.30
2007,02,16,14,04,9.30
2007,02,16,14,05,9.30
2007,02,16,14,06,9.30
2007,02,16,14,07,9.20
2007,02,16,14,08,9.20
2007,02,16,14,09,9.20
2007,02,16,14,10,9.20
2007,02,16,14,11,9.10
2007,02,16,14,12,9.10
2007,02,16,14,13,9.00
2007,02,16,14,14,9.00
2007,02,16,14,15,8.90
2007,02,16,14,16,8.90
2007,02,16,14,17,8.80
2007,02,16,14,18,8.80
2007,02,16,14,19,8.80
2007,02,16,14,20,8.70
2007,02,16,14,21,8.70
2007,02,16,14,22,8.60
2007,02,16,14,23,8.60
2007,02,16,14,24,8.60
2007,02,16,14,25,8.60
2007,02,16,14,26,8.50
2007,02,16,14,27,8.50
2007,02,16,14,28,8.50
2007,02,16,14,29,8.40
2007,02,16,14,30,8.40
2007,02,16,14,31,8.40
2007,02,16,14,32,8.30
2007,02,16,14,33,8.30
2007,02,16,14,34,8.30
2007,02,16,14,35,8.20
2007,02,16,14,36,8.20
2007,02,16,14,37,8.10
2007,02,16,14,38,8.10
2007,02,16,14,39,8.00
2007,02,16,14,40,8.00
2007,02,16,14,41,7.90
2007,02,16,14,42,7.90
2007,02,16,14,43,7.90
2007,02,16,14,44,7.80
2007,02,16,14,45,7.80
2007,02,16,14,46,7.80
2007,02,16,14,47,7.80
2007,02,16,14,48,7.80
2007,02,16,14,49,7.70
2007,02,16,14,50,7.70
2007,02,16,14,51,7.70
2007,02,16,14,52,7.70
2007,02,16,14,53,7.70
2007,02,16,14,54,7.70
2007,02,16,14,55,7.70
2007,02,16,14,56,7.70
2007,02,16,14,57,7.70
2007,02,16,14,58,7.70
2007,02,16,14,59,7.70
2007,02,16,15,00,7.70
2007,02,16,15,01,7.70
2007,02,16,15,02,7.70
2007,02,16,15,03,7.70
2007,02,16,15,04,7.70
2007,02,16,15,05,7.70
2007,02,16,15,06,7.70
2007,02,16,15,07,7.70
2007,02,16,15,08,7.70
2007,02,16,15,09,7.70
2007,02,16,15,10,7.70
2007,02,16,15,11,7.70
2007,02,16,15,12,7.70
2007,02,16,15,13,7.70
2007,02,16,15,14,7.70
2007,02,16,15,15,7.70
2007,02,16,15,16,7.70
2007,02,16,15,17,7.70
2007,02,16,15,18,7.70
2007,02,16,15,19,7.70
2007,02,16,15,20,7.70
2007,02,16,15,21,7.70
2007,02,16,15,22,7.70
2007,02,16,15,23,7.70
2007,02,16,15,24,7.70
2007,02,16,15,25,7.70
2007,02,16,15,26,7.70
2007,02,16,15,27,7.70
2007,02,16,15,28,7.70
2007,02,16,15,29,7.70
2007,02,16,15,30,7.70
2007,02,16,15,31,7.70
2007,02,16,15,32,7.60
2007,02,16,15,33,7.60
2007,02,16,15,34,7.60
2007,02,16,15,35,7.60
2007,02,16,15,36,7.60
2007,02,16,15,37,7.60
2007,02,16,15,38,7.60
2007,02,16,15,39,7.60
2007,02,16,15,40,7.60
2007,02,16,15,41,7.60
2007,02,16,15,42,7.60
2007,02,16,15,43,7.50
2007,02,16,15,44,7.50
2007,02,16,15,45,7.50
2007,02,16,15,46,7.50
2007,02,16,15,47,7.40
2007,02,16,15,48,7.40
2007,02,16,15,49,7.40
2007,02,16,15,50,7.40
2007,02,16,15,51,7.40
2007,02,16,15,52,7.40
2007,02,16,15,53,7.30
2007,02,16,15,54,7.30
2007,02,16,15,55,7.30
2007,02,16,15,56,7.30
2007,02,16,15,57,7.30
2007,02,16,15,58,7.30
2007,02,16,15,59,7.30
2007,02,16,16,00,7.20
2007,02,16,16,01,7.20
2007,02,16,16,02,7.20
2007,02,16,16,03,7.20
2007,02,16,16,04,7.20
2007,02,16,16,05,7.20
2007,02,16,16,06,7.20
2007,02,16,16,07,7.20
2007,02,16,16,08,7.10
2007,02,16,16,09,7.10
2007,02,16,16,10,7.10
2007,02,16,16,11,7.00
2007,02,16,16,12,7.00
2007,02,16,16,13,6.90
2007,02,16,16,14,6.90
2007,02,16,16,15,6.90
2007,02,16,16,16,6.90
2007,02,16,16,17,6.90
2007,02,16,16,18,6.90
2007,02,16,16,19,6.90
2007,02,16,16,20,6.90
2007,02,16,16,21,6.80
2007,02,16,16,22,6.80
2007,02,16,16,23,6.80
2007,02,16,16,24,6.80
2007,02,16,16,25,6.80
2007,02,16,16,26,6.80
2007,02,16,16,27,6.80
2007,02,16,16,28,6.80
2007,02,16,16,29,6.80
2007,02,16,16,30,6.80
2007,02,16,16,31,6.80
2007,02,16,16,32,6.80
2007,02,16,16,33,6.80
2007,02,16,16,34,6.80
2007,02,16,16,35,6.80
2007,02,16,16,36,6.80
2007,02,16,16,37,6.80
2007,02,16,16,38,6.80
2007,02,16,16,39,6.80
2007,02,16,16,40,6.80
2007,02,16,16,41,6.80
2007,02,16,16,42,6.80
2007,02,16,16,43,6.80
2007,02,16,16,44,6.80
2007,02,16,16,45,6.80
2007,02,16,16,46,6.80
2007,02,16,16,47,6.70
2007,02,16,16,48,6.70
2007,02,16,16,49,6.70
2007,02,16,16,50,6.70
2007,02,16,16,51,6.70
2007,02,16,16,52,6.70
2007,02,16,16,53,6.70
2007,02,16,16,54,6.70
2007,02,16,16,55,6.70
2007,02,16,16,56,6.70
2007,02,16,16,57,6.70
2007,02,16,16,58,6.70
2007,02,16,16,59,6.70
2007,02,16,17,00,6.70
2007,02,16,17,01,6.70
2007,02,16,17,02,6.70
2007,02,16,17,03,6.70
2007,02,16,17,04,6.70
2007,02,16,17,05,6.70
2007,02,16,17,06,6.70
2007,02,16,17,07,6.70
2007,02,16,17,08,6.70
2007,02,16,17,09,6.70
2007,02,16,17,10,6.70
2007,02,16,17,11,6.60
2007,02,16,17,12,6.60
2007,02,16,17,13,6.60
2007,02,16,17,14,6.60
2007,02,16,17,15,6.60
2007,02,16,17,16,6.60
2007,02,16,17,17,6.60
2007,02,16,17,18,6.60
2007,02,16,17,19,6.60
2007,02,16,17,20,6.60
2007,02,16,17,21,6.60
2007,02,16,17,22,6.60
2007,02,16,17,23,6.50
2007,02,16,17,24,6.50
2007,02,16,17,25,6.50
2007,02,16,17,26,6.50
2007,02,16,17,27,6.50
2007,02,16,17,28,6.50
2007,02,16,17,29,6.50
2007,02,16,17,30,6.50
2007,02,16,17,31,6.50
2007,02,16,17,32,6.50
2007,02,16,17,33,6.50
2007,02,16,17,34,6.50
2007,02,16,17,35,6.50
2007,02,16,17,36,6.40
2007,02,16,17,37,6.40
2007,02,16,17,38,6.40
2007,02,16,17,39,6.40
2007,02,16,17,40,6.40
2007,02,16,17,41,6.40
2007,02,16,17,42,6.40
2007,02,16,17,43,6.40
2007,02,16,17,44,6.40
2007,02,16,17,45,6.40
2007,02,16,17,46,6.40
2007,02,16,17,47,6.40
2007,02,16,17,48,6.40
2007,02,16,17,49,6.40
2007,02,16,17,50,6.40
2007,02,16,17,51,6.40
2007,02,16,17,52,6.30
2007,02,16,17,53,6.30
2007,02,16,17,54,6.30
2007,02,16,17,55,6.30
2007,02,16,17,56,6.30
2007,02,16,17,57,6.30
2007,02,16,17,58,6.30
2007,02,16,17,59,6.30
2007,02,16,18,00,6.30
2007,02,16,18,01,6.30
2007,02,16,18,02,6.30
2007,02,16,18,03,6.20
2007,02,16,18,04,6.20
2007,02,16,18,05,6.20
2007,02,16,18,06,6.20